Location: Fleischmann Planetarium and Science Center
(39.5456°N, 119.8190°W)
Time: 10:04:13
(UTC-07:00)

Daily predictions for brighter satellites

Satellite Brightness Start Highest point End
(mag) Time Altitude Azimuth Time Altitude Azimuth Time Altitude Azimuth
Spot 2 Rocket 4.4 19:04:17 10° ESE 19:08:28 27° ENE 19:12:41 10° N
NOSS 3-2 (C) 3.5 19:04:22 10° SSW 19:10:18 65° ESE 19:16:45 10° NE
Cosmos-2242 4.2 19:07:30 10° SE 19:10:56 23° E 19:14:24 10° NE
Cosmos 1441 Rocket 4.2 19:07:43 10° NNW 19:11:22 51° W 19:15:00 10° S
Cosmos 2219 Rocket 4.4 19:07:10 10° WSW 19:11:58 28° WNW 19:16:47 10° N
Meteor 1-28 Rocket 3.7 19:09:34 10° NNE 19:13:04 38° E 19:16:31 10° SSE
ATLAS CENTAUR R/B 2.4 19:09:44 10° NW 19:13:45 46° WSW 19:17:26 10° S
Cosmos 192 4.4 19:09:25 10° S 19:14:16 60° ESE 19:19:10 10° NNE
ISS -1.5 19:12:26 10° S 19:14:29 16° SE 19:16:32 10° E
Cosmos 2056 Rocket 3.7 19:10:38 10° NNW 19:16:06 86° WSW 19:21:31 10° SSE
Cosmos 1805 4.2 19:13:16 10° SSE 19:16:36 27° E 19:19:57 10° NNE
Cosmos 1953 3.1 19:14:54 10° SSE 19:18:22 29° E 19:21:49 10° NNE
Cosmos 2034 Rocket 4.3 19:15:32 10° SSE 19:21:24 44° E 19:27:20 10° NNE
Cosmos 2278 Rocket 3.7 19:16:28 10° NW 19:21:44 40° WSW 19:26:57 10° S
HJ-1C 4.5 19:19:21 10° SE 19:22:10 25° ENE 19:25:00 10° NNE
Cosmos 1464 Rocket 4.0 19:16:19 10° S 19:22:26 61° E 19:28:31 10° NNE
CZ-4C R/B 3.9 19:20:08 10° WSW 19:24:57 32° NW 19:30:20 10° NNE
ALOS 3.6 19:21:59 10° ESE 19:25:24 21° ENE 19:28:51 10° NNE
Cosmos 1707 4.4 19:23:45 10° NNW 19:27:21 39° W 19:30:56 10° SSW
SKYMED 2 4.4 19:24:36 10° N 19:28:53 57° WNW 19:33:07 10° SSW
Cosmos 2297 4.0 19:23:39 10° NNW 19:29:18 74° WSW 19:34:54 10° SSE
GPS 2-04 Rocket1 3.9 19:27:44 10° SSW 19:30:31 22° SSE 19:32:46 13° ESE
Cosmos 1408 Rocket 3.6 19:27:22 10° N 19:31:39 53° E 19:35:52 10° SSE
ATLAS CENTAUR R/B 3.5 19:27:27 10° SW 19:32:03 85° SE 19:46:51 10° NE
SL-19 R/B 4.5 19:27:30 10° SSE 19:33:06 83° WSW 19:39:04 10° NNW
Meteor 1-22 Rocket 4.4 19:29:41 10° SSW 19:35:00 71° W 19:40:18 10° N
Aureole 2 Rocket 4.2 19:33:03 10° SW 19:37:17 47° WNW 19:41:26 10° N
Cosmos 2369 Rocket 3.5 19:34:40 10° N 19:38:52 21° NE 19:41:35 15° E
Cosmos 1943 4.3 19:35:16 10° SSE 19:39:27 22° E 19:43:36 10° NE
Cosmos 1470 4.0 19:37:22 10° SE 19:40:13 20° E 19:43:03 10° NE
Meteor 1-24 Rocket 4.3 19:37:17 10° NNW 19:42:47 59° W 19:48:05 10° S
SAR-Lupe-1 4.4 19:40:27 10° S 19:43:58 68° WSW 19:47:32 10° NNW
Cosmos 1603 3.8 19:38:48 10° S 19:44:23 58° ESE 19:50:02 10° NNE
FREGAT/IRIS 2.6 19:42:40 10° SSE 19:45:45 89° WSW 19:48:51 10° NNW
SL-8 R/B 3.8 19:41:53 10° SW 19:46:34 57° SE 19:50:17 16° ENE
USA 215 3.3 19:40:16 10° NE 19:46:46 63° SE 19:53:13 10° SSW
NOAA 12 4.2 19:42:29 10° SSE 19:47:44 85° WSW 19:53:03 10° NNW
SJ-6B 3.2 19:44:19 10° S 19:48:17 69° W 19:52:20 10° NNW
CZ-4B DEB 4.0 19:47:41 23° E 19:48:19 24° ENE 19:51:00 10° NNE
Meteor 1-29 3.3 19:45:08 10° NNE 19:48:30 43° E 19:51:51 10° S
BREEZE-M DEB (TANK) 4.1 19:50:33 10° W 19:52:40 23° SSW 19:56:42 10° SSE
Helios 1A 3.0 19:49:16 10° SSE 19:53:24 61° ENE 19:57:35 10° N
Resurs 1-3 3.7 19:49:13 10° SSE 19:53:29 53° ENE 19:57:45 10° N
SeaSat 1 3.7 19:55:12 19° ESE 19:55:12 19° ESE 19:58:01 10° SSE
Cosmos 1674 3.5 19:51:50 10° NNE 19:55:18 30° ENE 19:56:23 26° ESE
Resurs 01 Rocket 1.5 19:52:31 10° SSE 19:56:58 77° ENE 20:01:26 10° N
Abrixas 2.3 19:57:21 10° SW 20:00:20 78° SE 20:01:22 37° ENE
Cosmos 724 4.3 19:54:52 10° SSW 20:00:47 88° NW 20:06:54 10° NNE
ASTRO E2 4.4 19:57:40 10° WSW 20:00:52 23° S 20:02:43 17° SSE
Cosmos 1743 Rocket 3.7 19:56:34 10° N 20:00:56 53° E 20:05:08 11° SSE
Cosmos 1758 3.5 19:57:21 10° S 20:01:25 79° W 20:05:33 10° N
In-Cosmos 22 4.4 19:56:56 10° NNW 20:02:44 80° W 20:08:27 10° S
Cosmos 1346 2.9 20:02:51 10° N 20:05:49 67° E 20:06:47 37° SSE
FengYun 1-2 T 4.1 20:06:26 10° SSE 20:11:57 82° ENE 20:17:27 10° NNW
Cosmos 1452 Rocket 4.0 20:07:20 10° NNW 20:12:32 63° WSW 20:17:42 10° S
ATLAS 5 CENTAUR R/B 3.1 20:15:10 10° WSW 20:19:42 40° NW 20:24:35 10° NNE
GP-B 3.6 20:19:35 10° NNE 20:23:17 40° ENE 20:23:17 40° ENE
Cosmos 1544 4.0 20:24:27 10° SSW 20:28:05 51° W 20:31:45 10° N
Nadezhda 4 Rocket 4.0 20:23:37 10° N 20:29:55 81° W 20:36:06 10° S
Helios 1B rocket 3.6 20:26:51 10° N 20:30:46 43° WNW 20:34:40 10° SW
ASTEX 1 3.2 20:26:07 10° N 20:31:03 85° E 20:35:56 10° S
Cosmos 1420 Rocket 4.1 20:28:17 10° NNW 20:33:36 75° WSW 20:37:15 20° S
CZ-2D R/B 3.2 20:35:31 66° S 20:36:01 89° WSW 20:39:57 10° NNW
Cosmos 1092 Rocket 3.9 20:31:48 10° N 20:38:02 85° E 20:43:13 15° S
Cosmos 839 Rocket 4.3 20:31:27 10° NNW 20:39:00 57° NE 20:40:52 44° ESE
Cosmos 1655 Rocket 4.2 20:34:42 10° N 20:40:38 44° ENE 20:40:56 44° E
Cosmos 2142 Rocket 4.4 20:37:22 10° S 20:43:41 71° E 20:50:04 10° NNE
OAO 3 Rocket 3.8 20:41:02 10° W 20:45:32 42° S 20:45:42 42° S
H-2A R/B 3.2 20:49:41 58° WSW 20:49:58 60° W 20:53:48 10° NNW
ISS -1.6 20:47:30 10° WSW 20:49:31 32° W 20:49:31 32° W
Cosmos 2026 Rocket 3.9 20:45:11 10° N 20:51:13 60° E 20:51:47 58° ESE
Cosmos 1634 Rocket 3.9 20:46:05 10° S 20:52:20 88° E 20:58:35 10° N
CENTAUR R/B 2.4 20:46:47 10° SSW 20:52:47 89° WNW 20:59:36 10° NNE
FENGYUN 3A 4.3 20:51:51 14° S 20:56:22 54° W 21:01:39 10° NNW
Cosmos 2151 3.9 20:53:10 10° N 20:55:56 40° N 20:55:56 40° N
Envisat 4.1 20:59:46 33° NNE 20:59:46 33° NNE 21:02:52 10° N
ALOS 3.5 20:59:22 17° SSW 21:02:34 39° W 21:06:57 10° NNW
Gbstr 26 Del rocket 3.5 21:03:57 10° WSW 21:08:14 71° WNW 21:08:14 71° WNW
Cosmos 1943 Rocket 3.0 21:17:24 10° NNW 21:21:11 40° N 21:21:11 40° N
Cosmos 1943 4.0 21:17:37 10° SW 21:23:04 50° WNW 21:28:33 10° NNE
Cosmos 2369 Rocket 2.5 21:17:44 10° NNW 21:23:18 60° WSW 21:23:24 60° WSW
USA 215 4.3 21:24:24 14° NNE 21:29:33 41° NNW 21:35:35 10° W
SeaSat 1 4.4 21:27:23 10° NNE 21:35:11 21° SW 21:36:55 10° SW
ERS-1 Rocket 4.2 21:35:24 37° NNW 21:35:24 37° NNW 21:38:27 10° NNW
